When you browse on this site, cookies collect data to enhance your experience and personalize the content and advertising you see.
Visit our Privacy Policy to learn more. By continuing to use the site, you agree to this use of cookies and data.
  • In Schweiz
  • Länderverzeichnis
  • Für 7 Tage
  • Wassertemperatur
  • Wetterkarte
  • Widgets
  • user-avatar
    Anmelden

    Stündliche Wetter Sankt Pölten

    Heute, 25 Mai, Montag

    Zeit Temperatur Niederschläge Wind Luftdruck Luftfeuchtigkeit
    00:00 +9°C° 0.2 mm 2 m/S 744 mmHg 91%
    01:00 +10°C° 0 mm 1 m/S 744 mmHg 94%
    02:00 +9°C° 0.3 mm 2 m/S 744 mmHg 95%
    03:00 +9°C° 0.3 mm 2 m/S 744 mmHg 96%
    04:00 +9°C° 0.3 mm 2 m/S 744 mmHg 97%
    05:00 +10°C° 0.5 mm 3 m/S 744 mmHg 97%
    06:00 +10°C° 0.5 mm 3 m/S 744 mmHg 97%
    07:00 +11°C° 0 mm 3 m/S 744 mmHg 98%
    08:00 +11°C° 1.1 mm 3 m/S 743 mmHg 96%
    09:00 +11°C° 1.1 mm 3 m/S 743 mmHg 94%
    10:00 +11°C° 1.1 mm 3 m/S 743 mmHg 93%
    11:00 +12°C° 1 mm 4 m/S 743 mmHg 91%
    12:00 +13°C° 1 mm 4 m/S 743 mmHg 89%
    13:00 +13°C° 1 mm 4 m/S 742 mmHg 87%
    14:00 +13°C° 1.4 mm 4 m/S 742 mmHg 88%
    15:00 +13°C° 1.4 mm 4 m/S 742 mmHg 88%
    16:00 +13°C° 1.4 mm 4 m/S 742 mmHg 89%
    17:00 +12°C° 1 mm 3 m/S 742 mmHg 90%
    18:00 +12°C° 1 mm 3 m/S 742 mmHg 91%
    19:00 +12°C° 1 mm 2 m/S 743 mmHg 92%
    20:00 +12°C° 0.4 mm 2 m/S 743 mmHg 93%
    21:00 +10°C° 0.4 mm 2 m/S 744 mmHg 94%
    22:00 +9°C° 0.4 mm 2 m/S 745 mmHg 94%
    23:00 +9°C° 0.2 mm 2 m/S 745 mmHg 95%

    Morgen, 26 Mai, Dienstag

    Zeit Temperatur Niederschläge Wind Luftdruck Luftfeuchtigkeit
    00:00 +9°C° 0.2 mm 2 m/S 745 mmHg 95%
    01:00 +9°C° 0.2 mm 2 m/S 745 mmHg 96%
    02:00 +8°C° 0 mm 2 m/S 745 mmHg 96%
    03:00 +8°C° 0 mm 2 m/S 745 mmHg 96%
    04:00 +8°C° 0 mm 2 m/S 745 mmHg 96%
    05:00 +9°C° 0 mm 3 m/S 745 mmHg 94%
    06:00 +9°C° 0 mm 3 m/S 745 mmHg 93%
    07:00 +10°C° 0 mm 3 m/S 745 mmHg 91%
    08:00 +11°C° 0.4 mm 3 m/S 745 mmHg 90%
    09:00 +11°C° 0.4 mm 3 m/S 745 mmHg 90%
    10:00 +11°C° 0.4 mm 3 m/S 745 mmHg 89%
    11:00 +12°C° 1.6 mm 3 m/S 745 mmHg 88%
    12:00 +13°C° 1.6 mm 3 m/S 745 mmHg 87%
    13:00 +14°C° 1.6 mm 3 m/S 745 mmHg 85%
    14:00 +14°C° 1.4 mm 3 m/S 745 mmHg 84%
    15:00 +14°C° 1.4 mm 3 m/S 744 mmHg 82%
    16:00 +15°C° 1.4 mm 2 m/S 744 mmHg 80%
    17:00 +15°C° 0.5 mm 2 m/S 745 mmHg 83%
    18:00 +14°C° 0.5 mm 2 m/S 745 mmHg 86%
    19:00 +13°C° 0.5 mm 1 m/S 745 mmHg 89%
    20:00 +12°C° 0.1 mm 1 m/S 745 mmHg 90%
    21:00 +11°C° 0.1 mm 1 m/S 746 mmHg 92%
    22:00 +9°C° 0.1 mm 2 m/S 746 mmHg 93%
    23:00 +9°C° 0 mm 2 m/S 746 mmHg 94%

    übermorgen, 27 Mai, Mittwoch

    Zeit Temperatur Niederschläge Wind Luftdruck Luftfeuchtigkeit
    00:00 +8°C° 0 mm 2 m/S 746 mmHg 94%
    01:00 +8°C° 0 mm 2 m/S 746 mmHg 95%
    02:00 +8°C° 0 mm 2 m/S 746 mmHg 95%
    03:00 +7°C° 0 mm 2 m/S 746 mmHg 95%
    04:00 +7°C° 0 mm 2 m/S 746 mmHg 95%
    05:00 +9°C° 0 mm 2 m/S 746 mmHg 93%
    06:00 +10°C° 0 mm 2 m/S 746 mmHg 90%
    07:00 +12°C° 0 mm 2 m/S 746 mmHg 87%
    08:00 +14°C° 0 mm 2 m/S 746 mmHg 78%
    09:00 +16°C° 0 mm 2 m/S 746 mmHg 69%
    10:00 +18°C° 0 mm 2 m/S 745 mmHg 60%
    11:00 +19°C° 0.1 mm 2 m/S 745 mmHg 58%
    12:00 +19°C° 0.1 mm 2 m/S 745 mmHg 57%
    13:00 +20°C° 0.1 mm 2 m/S 744 mmHg 56%
    14:00 +20°C° 0.4 mm 2 m/S 744 mmHg 60%
    15:00 +19°C° 0.4 mm 2 m/S 744 mmHg 63%
    16:00 +19°C° 0.4 mm 2 m/S 743 mmHg 67%
    17:00 +18°C° 0.1 mm 2 m/S 743 mmHg 71%
    18:00 +17°C° 0.1 mm 2 m/S 743 mmHg 75%
    19:00 +15°C° 0.1 mm 1 m/S 743 mmHg 79%
    20:00 +14°C° 0 mm 1 m/S 743 mmHg 81%
    21:00 +13°C° 0 mm 1 m/S 744 mmHg 83%
    22:00 +12°C° 0 mm 1 m/S 744 mmHg 85%
    23:00 +12°C° 0.2 mm 1 m/S 744 mmHg 87%

    28 Mai, Donnerstag

    Zeit Temperatur Niederschläge Wind Luftdruck Luftfeuchtigkeit
    00:00 +12°C° 0.2 mm 1 m/S 743 mmHg 89%
    01:00 +12°C° 0.2 mm 1 m/S 743 mmHg 91%
    02:00 +12°C° 0.6 mm 1 m/S 743 mmHg 93%
    03:00 +12°C° 0.6 mm 1 m/S 743 mmHg 95%
    04:00 +12°C° 0.6 mm 2 m/S 743 mmHg 97%
    05:00 +13°C° 0.6 mm 2 m/S 743 mmHg 96%
    06:00 +13°C° 0.6 mm 2 m/S 743 mmHg 95%
    07:00 +13°C° 0.6 mm 2 m/S 743 mmHg 94%
    08:00 +14°C° 0.7 mm 2 m/S 743 mmHg 90%
    09:00 +14°C° 0.7 mm 2 m/S 743 mmHg 87%
    10:00 +14°C° 0.7 mm 2 m/S 742 mmHg 84%
    11:00 +16°C° 0.3 mm 2 m/S 742 mmHg 77%
    12:00 +17°C° 0.3 mm 3 m/S 742 mmHg 70%
    13:00 +18°C° 0.3 mm 3 m/S 741 mmHg 63%
    14:00 +18°C° 0.2 mm 3 m/S 741 mmHg 61%
    15:00 +18°C° 0.2 mm 3 m/S 741 mmHg 59%
    16:00 +18°C° 0.2 mm 3 m/S 740 mmHg 58%
    17:00 +17°C° 0.1 mm 3 m/S 740 mmHg 64%
    18:00 +15°C° 0.1 mm 2 m/S 740 mmHg 69%
    19:00 +14°C° 0.1 mm 2 m/S 740 mmHg 75%
    20:00 +12°C° 0 mm 1 m/S 741 mmHg 78%
    21:00 +11°C° 0 mm 1 m/S 741 mmHg 80%
    22:00 +10°C° 0 mm 1 m/S 741 mmHg 83%
    23:00 +9°C° 0 mm 1 m/S 741 mmHg 83%

    29 Mai, Freitag

    Zeit Temperatur Niederschläge Wind Luftdruck Luftfeuchtigkeit
    00:00 +9°C° 0 mm 1 m/S 741 mmHg 83%
    01:00 +9°C° 0 mm 1 m/S 741 mmHg 83%
    02:00 +8°C° 0 mm 1 m/S 740 mmHg 84%
    03:00 +8°C° 0 mm 1 m/S 740 mmHg 86%
    04:00 +7°C° 0 mm 1 m/S 740 mmHg 87%
    05:00 +9°C° 0 mm 1 m/S 740 mmHg 82%
    06:00 +11°C° 0 mm 1 m/S 740 mmHg 77%
    07:00 +12°C° 0 mm 1 m/S 739 mmHg 72%
    08:00 +14°C° 0 mm 1 m/S 739 mmHg 66%
    09:00 +15°C° 0 mm 1 m/S 739 mmHg 61%
    10:00 +16°C° 0 mm 1 m/S 738 mmHg 55%
    11:00 +18°C° 0.1 mm 1 m/S 738 mmHg 52%
    12:00 +18°C° 0.1 mm 2 m/S 737 mmHg 49%
    13:00 +18°C° 0.1 mm 2 m/S 737 mmHg 45%
    14:00 +18°C° 0.2 mm 2 m/S 736 mmHg 49%
    15:00 +17°C° 0.2 mm 2 m/S 736 mmHg 53%
    16:00 +17°C° 0.2 mm 3 m/S 736 mmHg 56%
    17:00 +15°C° 0.4 mm 2 m/S 736 mmHg 68%
    18:00 +14°C° 0.4 mm 2 m/S 736 mmHg 79%
    19:00 +12°C° 0.4 mm 2 m/S 736 mmHg 91%
    20:00 +10°C° 0.9 mm 2 m/S 736 mmHg 93%
    21:00 +10°C° 0.9 mm 1 m/S 736 mmHg 95%
    22:00 +10°C° 0.9 mm 1 m/S 737 mmHg 97%
    23:00 +9°C° 0.6 mm 1 m/S 737 mmHg 97%

    30 Mai, Samstag

    Zeit Temperatur Niederschläge Wind Luftdruck Luftfeuchtigkeit
    00:00 +9°C° 0.6 mm 1 m/S 737 mmHg 96%
    01:00 +9°C° 0.6 mm 1 m/S 737 mmHg 96%
    02:00 +9°C° 0.2 mm 1 m/S 737 mmHg 96%
    03:00 +8°C° 0.2 mm 2 m/S 737 mmHg 96%
    04:00 +7°C° 0.2 mm 2 m/S 737 mmHg 96%
    05:00 +8°C° 0.1 mm 2 m/S 737 mmHg 94%
    06:00 +8°C° 0.1 mm 2 m/S 738 mmHg 93%
    07:00 +8°C° 0.1 mm 3 m/S 738 mmHg 91%
    08:00 +9°C° 0.3 mm 3 m/S 738 mmHg 86%
    09:00 +10°C° 0.3 mm 3 m/S 738 mmHg 81%
    10:00 +11°C° 0.3 mm 3 m/S 738 mmHg 76%
    11:00 +12°C° 0.5 mm 4 m/S 738 mmHg 74%
    12:00 +13°C° 0.5 mm 4 m/S 737 mmHg 72%
    13:00 +13°C° 0.5 mm 4 m/S 737 mmHg 70%
    14:00 +13°C° 0.8 mm 4 m/S 737 mmHg 73%
    15:00 +13°C° 0.8 mm 4 m/S 737 mmHg 75%
    16:00 +13°C° 0.8 mm 3 m/S 736 mmHg 78%
    17:00 +12°C° 0.5 mm 3 m/S 736 mmHg 82%
    18:00 +11°C° 0.5 mm 3 m/S 736 mmHg 86%
    19:00 +10°C° 0.5 mm 2 m/S 736 mmHg 90%
    20:00 +10°C° 1.5 mm 2 m/S 736 mmHg 92%
    21:00 +10°C° 1.5 mm 2 m/S 737 mmHg 95%
    22:00 +9°C° 1.5 mm 2 m/S 737 mmHg 97%
    23:00 +9°C° 0.8 mm 2 m/S 737 mmHg 97%
    Mehr zeigen